Tracking 18980 objects as of 20-Feb-2018
HD Live streaming from Space Station
objects crossing your sky now

FENGYUN 1C DEB


10-day predictions


NORAD ID: 30927
Int'l Code: 1999-025AZR
Launch date: May 10, 1999
Source: People's Republic of China (PRC)
Launch site: Taiyaun Space Center, China (TSC)

Note: This is SATELLITE DEBRIS
aabbcc
Your satellite tracking list
Your tracking list is empty




NASA's NSSDC Master Catalog

Two Line Element Set (TLE):
1 30927U 99025AZR 18050.88313170 +.00000529 +00000-0 +38962-3 0  9998
2 30927 099.2644 038.2838 0118563 274.0910 147.3893 13.96878533557539
Source of the keplerian elements: AFSPC